Location: Plymouth
(43.7570°N, 71.6890°W)
Time: 10:54:34
(UTC-04:00)

Amateur Radio Satellites - All Passes

Search period start: 23 May 2015 10:24
Search period end: 24 May 2015 10:24
Location: Plymouth, 43.7570°N, 71.6890°W

Satellite Date Start Highest point End Downlink Frequencies (MHz)
Time Altitude Azimuth
CINEMA 3 23 May 10:28:05 10:32:54 62° 287° (WNW) 10:37:29 145.822/145.860
ZACube-1 23 May 10:32:12 10:36:29 49° 99° (E) 10:40:38 437.345
AAUSAT CUBESAT 2 23 May 10:32:42 10:36:37 41° 288° (WNW) 10:40:30 437.432
GOMX 1 23 May 10:35:33 10:39:52 24° 296° (WNW) 10:43:56 467.674
TIGRISAT 23 May 10:41:00 10:45:42 78° 258° (WSW) 10:50:25 435.000
UKube-1 23 May 10:43:17 10:47:03 28° 95° (E) 10:50:50 .
VELOX 1 23 May 10:43:57 10:46:43 16° 90° (E) 10:49:38 145.980
Cosmos 2504 23 May 10:45:08 10:53:35 81° 97° (E) 11:01:31 435.465 / 435.565
DX 1 23 May 10:45:33 10:49:31 32° 97° (E) 10:53:29 434.975-435.025
YUBILEINY 23 May 10:46:40 10:51:42 15° 306° (NW) 10:56:14 435.215
NANOSAT C BR1 23 May 10:50:23 10:54:36 64° 74° (ENE) 10:58:52 145.865
Oscar 11 23 May 10:54:38 10:58:51 54° 287° (WNW) 11:03:01 145.826/435.025
QB50P2 23 May 10:55:09 10:59:25 75° 75° (ENE) 11:03:44 145.880/145.840
CUBEBUG 1 23 May 10:55:53 10:56:58 11° 87° (E) 10:58:19 437.445
RS-15 23 May 10:57:38 11:08:31 70° 310° (NW) 11:19:47 29.354- 29.394
UNISAT 6 23 May 10:59:45 11:04:19 49° 261° (W) 11:08:52 437.425
CANX-2 23 May 11:00:20 11:02:26 13° 297° (WNW) 11:04:21 2200.000
HUMSAT D 23 May 11:01:12 11:05:15 46° 98° (E) 11:09:14 437.325/437.525
CUTE 1.7 + AOD 2 23 May 11:04:34 11:06:40 13° 297° (WNW) 11:08:33 437.475
PCSat 23 May 11:06:19 11:11:47 87° 245° (WSW) 11:17:13 145.827
UWE-3 23 May 11:08:11 11:12:34 54° 287° (WNW) 11:16:48 435.000/436.395/437.385
POPSAT HIP 1 23 May 11:08:31 11:12:49 81° 259° (W) 11:17:08 437.405
AISAT 23 May 11:13:03 11:17:08 33° 96° (E) 11:21:14 437.250
DUCHIFAT 1 23 May 11:14:02 11:18:17 72° 258° (WSW) 11:22:35 145.980
50 SAT 23 May 11:21:20 11:25:04 42° 98° (E) 11:28:46 437.505
HO-68 23 May 11:22:38 11:28:23 26° 302° (WNW) 11:33:56 435.675
SO-50 23 May 11:27:41 11:31:13 19° 36° (NE) 11:34:51 436.795
DELFI C3 23 May 11:28:36 11:32:07 29° 290° (WNW) 11:35:35 145.870
FUNcube-1 23 May 11:29:51 11:34:00 41° 289° (WNW) 11:38:00 145.935
ANTELSAT 23 May 11:44:33 11:47:55 19° 269° (W) 11:51:08 437.575/2403.000
CUSAT 1 23 May 11:47:13 11:49:34 12° 75° (ENE) 11:52:34 437.405
CUBEBUG 2 23 May 11:49:14 11:52:29 19° 296° (WNW) 11:55:33 437.445
SPROUT 23 May 11:50:40 11:52:11 12° 87° (E) 11:53:57 437.525
POLYITAN 1 23 May 11:53:33 11:57:13 26° 266° (W) 12:00:51 437.675
QB50P1 23 May 11:53:57 11:57:35 26° 266° (W) 12:01:12 145.935-145.965
BUGSAT 1 23 May 11:56:49 12:00:35 34° 264° (W) 12:04:25 437.445
ESTCUBE 1 23 May 12:05:23 12:09:55 69° 102° (ESE) 12:14:27 437.505/2401.250
ZACube-1 23 May 12:09:31 12:12:29 17° 296° (WNW) 12:15:16 437.345
VELOX 1 23 May 12:19:15 12:23:37 51° 288° (WNW) 12:27:58 145.980
UKube-1 23 May 12:19:23 12:23:09 28° 292° (WNW) 12:26:50 .
DX 1 23 May 12:21:59 12:25:39 25° 293° (WNW) 12:29:13 434.975-435.025
DANDE 23 May 12:27:18 12:31:53 20° 79° (E) 12:37:23 436.750
TISAT 1 23 May 12:28:59 12:32:20 22° 93° (E) 12:35:45 437.305
NANOSAT C BR1 23 May 12:29:09 12:30:58 12° 272° (W) 12:32:34 145.865
CUBEBUG 1 23 May 12:29:29 12:33:57 75° 285° (WNW) 12:38:22 437.445
QB50P2 23 May 12:35:08 12:35:56 10° 274° (W) 12:36:29 145.880/145.840
HUMSAT D 23 May 12:37:53 12:40:40 17° 295° (WNW) 12:43:19 437.325/437.525
Cosmos 2504 23 May 12:41:39 12:47:58 22° 297° (WNW) 12:53:44 435.465 / 435.565
Oscar 19 23 May 12:43:12 12:47:59 39° 69° (ENE) 12:52:50 437.125/150
AISAT 23 May 12:49:51 12:53:36 26° 293° (WNW) 12:57:16 437.250
ITAMSAT 1 23 May 12:50:21 12:53:11 15° 60° (ENE) 12:56:13 435.822/435.867
PCSat 23 May 12:52:13 12:54:29 12° 256° (WSW) 12:56:27 145.827
50 SAT 23 May 12:57:02 12:59:29 16° 295° (WNW) 13:01:48 437.505
Gurwin Techsat 1B 23 May 13:03:07 13:06:38 19° 62° (ENE) 13:10:20 435.225
SO-50 23 May 13:07:27 13:12:27 85° 238° (WSW) 13:17:21 436.795
BEESAT 23 May 13:10:44 13:11:28 10° 86° (E) 13:12:32 436.000
GONETS M04 23 May 13:12:18 13:20:33 48° 89° (E) 13:28:56
RS-15 23 May 13:14:03 13:23:28 30° 340° (NNW) 13:33:05 29.354- 29.394
SWISSCUBE 23 May 13:17:07 13:19:29 14° 88° (E) 13:22:05 437.505
CUSAT 1 23 May 13:23:45 13:30:37 63° 94° (E) 13:38:44 437.405
SPROUT 23 May 13:24:29 13:28:49 67° 286° (WNW) 13:33:06 437.525
AO-7 23 May 13:38:29 13:43:24 18° 47° (NE) 13:48:40 29.400- 29.500
Cosmos 2499 23 May 13:41:40 13:42:16 10° 77° (ENE) 13:43:32 435.465 / 435.565
ESTCUBE 1 23 May 13:43:52 13:46:17 14° 298° (WNW) 13:48:32 437.505/2401.250
JAS-2 23 May 13:54:17 13:57:14 14° 59° (ENE) 14:00:23 435.910
TISAT 1 23 May 14:04:18 14:08:13 34° 290° (WNW) 14:12:03 437.305
DANDE 23 May 14:07:09 14:13:56 87° 280° (W) 14:22:18 436.750
HORYU 2 23 May 14:12:01 14:13:53 13° 61° (ENE) 14:15:58 437.375
Oscar 19 23 May 14:23:00 14:27:28 28° 266° (W) 14:31:51 437.125/150
ITAMSAT 1 23 May 14:26:56 14:32:06 79° 257° (WSW) 14:37:19 435.822/435.867
ITUPSAT 1 23 May 14:34:54 14:39:42 74° 103° (ESE) 14:44:29 437.325
Gurwin Techsat 1B 23 May 14:40:53 14:46:09 65° 258° (WSW) 14:51:28 435.225
BEESAT 23 May 14:45:16 14:50:05 86° 282° (WNW) 14:54:51 436.000
SO-50 23 May 14:50:40 14:52:19 11° 252° (WSW) 14:53:40 436.795
SWISSCUBE 23 May 14:53:09 14:57:54 67° 287° (WNW) 15:02:38 437.505
CUSAT 1 23 May 15:07:33 15:14:00 32° 297° (WNW) 15:21:03 437.405
GONETS M04 23 May 15:09:19 15:17:35 41° 290° (WNW) 15:25:48
Cosmos 2499 23 May 15:26:08 15:34:13 62° 94° (E) 15:41:45 435.465 / 435.565
AO-7 23 May 15:26:42 15:34:53 69° 68° (ENE) 15:43:10 29.400- 29.500
RS-15 23 May 15:31:19 15:40:32 28° 14° (NNE) 15:50:13 29.354- 29.394
STARS 23 May 15:32:20 15:36:23 34° 96° (E) 15:40:27 437.465
JAS-2 23 May 15:34:49 15:41:42 76° 74° (ENE) 15:47:47 435.910
HORYU 2 23 May 15:45:30 15:50:00 77° 257° (WSW) 15:54:30 437.375
DANDE 23 May 15:53:16 15:58:43 21° 305° (NW) 16:04:30 436.750
KKS-1 23 May 15:54:19 15:58:50 87° 285° (WNW) 16:03:19 437.445
ITUPSAT 1 23 May 16:14:24 16:17:04 15° 299° (WNW) 16:19:31 437.325
O/OREOS (USA 219) 23 May 16:21:49 16:26:11 51° 109° (ESE) 16:30:35 437.305
BEESAT 23 May 16:25:37 16:27:15 11° 301° (WNW) 16:28:38 436.000
Cubesat XI-IV 23 May 16:32:52 16:35:01 13° 58° (ENE) 16:37:25 437.490
MOZHAYETS 4 23 May 16:54:44 16:58:54 34° 96° (E) 17:03:05
YUBILEINY 23 May 16:58:18 17:02:06 14° 52° (NE) 17:06:27 435.215
STARS 23 May 17:09:04 17:12:42 24° 293° (WNW) 17:16:14 437.465
Cosmos 2499 23 May 17:20:59 17:27:53 29° 293° (WNW) 17:34:15 435.465 / 435.565
AO-7 23 May 17:21:31 17:28:26 28° 268° (W) 17:35:09 29.400- 29.500
JAS-2 23 May 17:22:36 17:27:20 19° 270° (W) 17:31:28 435.910
KKS-1 23 May 17:33:54 17:34:49 10° 301° (WNW) 17:35:29 437.445
RS-15 23 May 17:44:50 17:56:09 58° 45° (NE) 18:08:00 29.354- 29.394
CUTE-I 23 May 17:49:50 17:54:59 56° 71° (ENE) 18:00:13 437.470
O/OREOS (USA 219) 23 May 18:02:37 18:05:57 19° 308° (NW) 18:09:11 437.305
Cubesat XI-IV 23 May 18:09:04 18:14:22 83° 76° (ENE) 18:19:44 437.490
HO-68 23 May 18:21:13 18:24:05 13° 49° (NE) 18:27:19 435.675
CUBESAT XI-V 23 May 18:22:42 18:26:30 25° 93° (E) 18:30:24 437.345
MOZHAYETS 4 23 May 18:32:13 18:36:00 25° 293° (WNW) 18:39:42
BEESAT 3 23 May 18:45:36 18:49:20 36° 117° (ESE) 18:53:09 437.485
YUBILEINY 23 May 18:52:35 19:01:13 64° 77° (ENE) 19:09:51 435.215
AIST 2 23 May 18:56:45 18:58:14 12° 110° (ESE) 18:59:57 435.215
Cosmos 2491 23 May 18:57:03 19:04:28 33° 85° (E) 19:12:09 435.465 / 435.565
BEESAT 2 23 May 19:28:41 19:32:48 83° 123° (ESE) 19:36:58 435.950
CUTE-I 23 May 19:31:35 19:35:30 20° 269° (W) 19:39:16 437.470
COMPASS 1 23 May 19:36:09 19:37:49 12° 63° (ENE) 19:39:40 437.405
BRITE-PL 23 May 19:43:35 19:48:28 58° 73° (ENE) 19:53:48 437.365/2234.400
STRAND 1 23 May 19:45:13 19:50:20 65° 101° (E) 19:55:27 437.568
DOVE 4 23 May 19:47:50 19:52:11 30° 67° (ENE) 19:56:46 437.250
PRISM 23 May 19:48:56 19:53:06 88° 103° (ESE) 19:57:16 437.425
AAUSAT CUBESAT 2 23 May 19:50:50 19:53:12 15° 65° (ENE) 19:55:42 437.432
Cubesat XI-IV 23 May 19:52:42 19:55:16 13° 273° (W) 19:57:32 437.490
CINEMA 3 23 May 19:55:08 19:58:27 19° 63° (ENE) 20:01:57 145.822/145.860
RS-15 23 May 19:57:35 20:08:37 50° 248° (WSW) 20:19:54 29.354- 29.394
CUBESAT XI-V 23 May 19:59:45 20:04:03 37° 290° (WNW) 20:08:21 437.345
HO-68 23 May 20:03:31 20:10:31 59° 68° (ENE) 20:17:35 435.675
GOMX 1 23 May 20:05:34 20:10:31 62° 74° (ENE) 20:15:51 467.674
Oscar 11 23 May 20:16:34 20:18:52 15° 64° (ENE) 20:21:21 145.826/435.025
CANX-2 23 May 20:16:45 20:20:54 53° 73° (ENE) 20:25:05 2200.000
M-CUBED/EXP-1 PRIME 23 May 20:20:23 20:23:44 79° 107° (ESE) 20:27:02 437.505
CUTE 1.7 + AOD 2 23 May 20:20:54 20:25:03 53° 73° (ENE) 20:29:14 437.475
BEESAT 3 23 May 20:23:53 20:27:24 26° 316° (NW) 20:30:55 437.485
UWE-3 23 May 20:31:29 20:34:24 17° 64° (ENE) 20:37:29 435.000/436.395/437.385
AIST 2 23 May 20:32:01 20:36:18 76° 307° (NW) 20:40:36 435.215
AUBIESAT-1 23 May 20:32:13 20:35:34 84° 290° (WNW) 20:38:52 437.475
AIST 1 23 May 20:34:35 20:38:09 27° 90° (E) 20:41:48
Cosmos 2504 23 May 20:36:55 20:43:01 29° 67° (ENE) 20:49:09 435.465 / 435.565
DELFI C3 23 May 20:43:01 20:45:44 18° 66° (ENE) 20:48:35 145.870
SEEDS 23 May 20:49:24 20:53:39 90° 250° (WSW) 20:57:55 437.485
YUBILEINY 23 May 20:50:18 20:57:30 29° 277° (W) 21:04:26 435.215
FUNcube-1 23 May 20:51:21 20:54:38 20° 66° (ENE) 20:58:02 145.935
Cosmos 2491 23 May 20:52:20 21:00:59 57° 285° (WNW) 21:09:39 435.465 / 435.565
COMPASS 1 23 May 21:08:50 21:13:01 68° 259° (W) 21:17:12 437.405
BEESAT 2 23 May 21:08:56 21:11:29 15° 323° (NW) 21:13:56 435.950
CUBEBUG 2 23 May 21:10:38 21:15:12 48° 72° (ENE) 21:19:48 437.445
BRITE-PL 23 May 21:23:58 21:27:32 19° 273° (W) 21:31:06 437.365/2234.400
AAUSAT CUBESAT 2 23 May 21:24:21 21:28:27 52° 261° (W) 21:32:32 437.432
DOVE 4 23 May 21:25:07 21:29:48 37° 265° (W) 21:34:40 437.250
STRAND 1 23 May 21:25:35 21:29:05 18° 298° (WNW) 21:32:26 437.568
ZACube-1 23 May 21:28:57 21:33:21 47° 72° (ENE) 21:37:47 437.345
CINEMA 3 23 May 21:30:17 21:35:11 61° 261° (W) 21:40:12 145.822/145.860
UKube-1 23 May 21:39:27 21:43:10 29° 68° (ENE) 21:46:58 .
DX 1 23 May 21:42:25 21:46:19 34° 69° (ENE) 21:50:17 434.975-435.025
VELOX 1 23 May 21:43:05 21:46:03 18° 64° (ENE) 21:49:10 145.980
GOMX 1 23 May 21:45:43 21:49:13 18° 273° (W) 21:52:39 467.674
Oscar 11 23 May 21:50:20 21:54:38 60° 260° (W) 21:58:57 145.826/435.025
HO-68 23 May 21:52:37 21:58:43 28° 267° (W) 22:04:41 435.675
CUBEBUG 1 23 May 21:53:40 21:55:13 12° 61° (ENE) 21:57:00 437.445
HUMSAT D 23 May 21:53:59 21:58:01 39° 71° (ENE) 22:02:05 437.325/437.525
CANX-2 23 May 21:54:44 21:57:13 14° 271° (W) 21:59:30 2200.000
CUTE 1.7 + AOD 2 23 May 21:58:54 22:01:21 14° 271° (W) 22:03:37 437.475
UWE-3 23 May 22:05:53 22:10:31 60° 260° (W) 22:15:10 435.000/436.395/437.385
50 SAT 23 May 22:07:18 22:10:50 30° 70° (ENE) 22:14:23 437.505
AISAT 23 May 22:12:05 22:16:07 36° 70° (ENE) 22:20:14 437.250
AIST 1 23 May 22:12:11 22:15:47 26° 288° (WNW) 22:19:22
AIST 2 23 May 22:13:25 22:15:39 14° 326° (NW) 22:17:46 435.215
DELFI C3 23 May 22:16:48 22:20:36 39° 262° (W) 22:24:25 145.870
CUSAT 1 23 May 22:22:05 22:24:25 12° 47° (NE) 22:27:05 437.405
FUNcube-1 23 May 22:26:14 22:30:40 46° 262° (W) 22:35:06 145.935
Cosmos 2504 23 May 22:29:49 22:36:51 53° 268° (W) 22:43:45 435.465 / 435.565
TIGRISAT 23 May 22:32:35 22:35:44 19° 91° (E) 22:38:57 435.000
QB50P2 23 May 22:41:36 22:42:49 11° 87° (E) 22:44:18 145.880/145.840
SPROUT 23 May 22:46:43 22:48:21 12° 62° (ENE) 22:50:11 437.525
CUBEBUG 2 23 May 22:48:36 22:52:09 20° 270° (W) 22:55:35 437.445
UNISAT 6 23 May 22:50:49 22:54:46 31° 95° (E) 22:58:38 437.425
POPSAT HIP 1 23 May 22:53:47 22:56:14 15° 90° (E) 22:58:52 437.405
Cosmos 2491 23 May 22:56:55 23:00:26 12° 311° (NW) 23:03:22 435.465 / 435.565
DUCHIFAT 1 23 May 22:58:36 23:01:18 17° 90° (E) 23:04:09 145.980
DANDE 23 May 23:06:09 23:11:57 21° 55° (NE) 23:17:24 436.750
ESTCUBE 1 23 May 23:06:10 23:10:37 74° 75° (ENE) 23:15:06 437.505/2401.250
ZACube-1 23 May 23:06:38 23:09:58 19° 269° (W) 23:13:11 437.345
UKube-1 23 May 23:15:35 23:19:18 27° 265° (W) 23:22:58 .
VELOX 1 23 May 23:17:59 23:22:17 48° 261° (W) 23:26:37 145.980
DX 1 23 May 23:19:06 23:22:39 24° 266° (W) 23:26:08 434.975-435.025
GONETS M04 23 May 23:21:06 23:27:57 25° 62° (ENE) 23:35:03
TISAT 1 23 May 23:22:44 23:25:52 21° 66° (ENE) 23:29:08 437.305
CUBEBUG 1 23 May 23:26:40 23:31:01 77° 258° (WSW) 23:35:26 437.445
HUMSAT D 23 May 23:30:41 23:33:56 20° 268° (W) 23:37:06 437.325/437.525
ANTELSAT 23 May 23:33:43 23:38:11 89° 106° (ESE) 23:42:31 437.575/2403.000
POLYITAN 1 23 May 23:36:58 23:41:06 45° 98° (E) 23:45:13 437.675
QB50P1 23 May 23:37:02 23:41:09 44° 98° (E) 23:45:16 145.935-145.965
BUGSAT 1 23 May 23:37:31 23:41:18 30° 95° (E) 23:45:07 437.445
50 SAT 23 May 23:42:24 23:45:36 22° 267° (W) 23:48:43 437.505
AISAT 23 May 23:49:14 23:52:50 23° 267° (W) 23:56:22 437.250
CUSAT 1 24 May 00:01:55 00:09:31 54° 72° (ENE) 00:15:37 437.405
ITUPSAT 1 24 May 00:08:25 00:10:24 13° 60° (ENE) 00:12:36 437.325
TIGRISAT 24 May 00:08:32 00:12:43 41° 290° (WNW) 00:16:47 435.000
NANOSAT C BR1 24 May 00:09:41 00:13:59 81° 284° (WNW) 00:18:15 145.865
QB50P2 24 May 00:14:59 00:19:17 69° 286° (WNW) 00:23:31 145.880/145.840
ISS 24 May 00:17:08 00:19:34 20° 136° (SE) 00:22:04 145.825
BEESAT 24 May 00:17:35 00:20:21 16° 62° (ENE) 00:23:17 436.000
SPROUT 24 May 00:19:35 00:23:54 75° 258° (WSW) 00:28:16 437.525
SWISSCUBE 24 May 00:24:48 00:28:10 20° 64° (ENE) 00:31:39 437.505
UNISAT 6 24 May 00:27:44 00:31:28 26° 293° (WNW) 00:35:02 437.425
POPSAT HIP 1 24 May 00:28:18 00:32:29 51° 288° (WNW) 00:36:37 437.405
DUCHIFAT 1 24 May 00:33:18 00:37:25 46° 288° (WNW) 00:41:29 145.980
ESTCUBE 1 24 May 00:46:37 00:48:07 11° 273° (W) 00:49:21 437.505/2401.250
DANDE 24 May 00:48:21 00:56:43 88° 79° (E) 01:03:29 436.750
O/OREOS (USA 219) 24 May 00:52:16 00:54:55 16° 49° (NE) 00:57:42 437.305
Oscar 19 24 May 00:55:32 00:57:14 12° 86° (E) 00:59:14 437.125/150
TISAT 1 24 May 00:57:28 01:01:26 38° 263° (W) 01:05:25 437.305
BUGSAT 1 24 May 01:13:06 01:16:41 26° 292° (WNW) 01:20:10 437.445
ANTELSAT 24 May 01:13:21 01:14:18 10° 300° (WNW) 01:15:01 437.575/2403.000
POLYITAN 1 24 May 01:13:41 01:16:43 18° 295° (WNW) 01:19:36 437.675
QB50P1 24 May 01:13:42 01:16:44 19° 295° (WNW) 01:19:39 145.935-145.965
Cosmos 2499 24 May 01:16:39 01:21:39 21° 62° (ENE) 01:26:52 435.465 / 435.565
GONETS M04 24 May 01:17:06 01:25:55 77° 264° (W) 01:34:37
KKS-1 24 May 01:20:20 01:21:55 12° 61° (ENE) 01:23:43 437.445
ITUPSAT 1 24 May 01:42:55 01:47:41 84° 255° (WSW) 01:52:29 437.325
CUSAT 1 24 May 01:45:17 01:51:44 30° 275° (W) 01:56:59 437.405
PCSat 24 May 01:48:59 01:54:20 68° 118° (ESE) 01:59:45 145.827
ISS 24 May 01:52:33 01:55:45 57° 332° (NNW) 01:58:59 145.825
BEESAT 24 May 01:53:00 01:57:43 66° 258° (WSW) 02:02:28 436.000
SWISSCUBE 24 May 02:01:05 02:05:42 50° 261° (W) 02:10:20 437.505
BEESAT 2 24 May 02:10:12 02:12:04 13° 34° (NE) 02:14:03 435.950
STARS 24 May 02:30:24 02:34:28 36° 69° (ENE) 02:38:35 437.465
O/OREOS (USA 219) 24 May 02:30:26 02:34:53 66° 249° (WSW) 02:39:17 437.305
Oscar 19 24 May 02:32:12 02:37:24 86° 285° (WNW) 02:42:33 437.125/150
DANDE 24 May 02:33:17 02:38:44 19° 281° (W) 02:43:18 436.750
ITAMSAT 1 24 May 02:38:41 02:43:22 33° 96° (E) 02:48:06 435.822/435.867
KKS-1 24 May 02:53:29 02:57:58 82° 258° (WSW) 03:02:30 437.445
Gurwin Techsat 1B 24 May 02:55:47 03:00:53 45° 98° (E) 03:05:59 435.225
BEESAT 3 24 May 03:02:54 03:06:42 35° 48° (NE) 03:10:27 437.485
Cosmos 2499 24 May 03:08:38 03:15:42 73° 265° (W) 03:22:46 435.465 / 435.565
AIST 2 24 May 03:15:06 03:17:47 16° 37° (NE) 03:20:33 435.215
GONETS M04 24 May 03:16:38 03:21:24 15° 284° (WNW) 03:25:35
VERMONT LUNAR 24 May 03:22:56 03:25:14 18° 157° (SSE) 03:27:34 437.305
SO-50 24 May 03:23:54 03:27:33 23° 113° (ESE) 03:31:23 436.795
AO-7 24 May 03:28:11 03:33:40 20° 88° (E) 03:39:35 29.400- 29.500
ISS 24 May 03:30:02 03:32:40 21° 352° (N) 03:35:16 145.825
PCSat 24 May 03:33:58 03:38:18 23° 318° (NW) 03:42:34 145.827
HORYU 2 24 May 03:36:25 03:39:27 18° 91° (E) 03:42:37 437.375
BEESAT 2 24 May 03:46:47 03:50:55 77° 55° (NE) 03:54:58 435.950
MOZHAYETS 4 24 May 03:57:53 04:02:07 38° 70° (ENE) 04:06:22
STARS 24 May 04:07:28 04:11:02 23° 267° (W) 04:14:32 437.465
Oscar 19 24 May 04:13:42 04:16:03 13° 302° (WNW) 04:18:10 437.125/150
ITAMSAT 1 24 May 04:18:12 04:22:52 33° 293° (WNW) 04:27:29 435.822/435.867
JAS-2 24 May 04:27:52 04:32:59 54° 100° (E) 04:38:07 435.910
Gurwin Techsat 1B 24 May 04:36:16 04:40:39 26° 295° (WNW) 04:44:54 435.225
BEESAT 3 24 May 04:41:11 04:44:32 24° 246° (WSW) 04:47:47 437.485
PHONESAT 2.4 24 May 04:47:26 04:50:15 23° 158° (SSE) 04:53:04 2401.200-2431.200
AIST 2 24 May 04:52:41 04:56:56 78° 238° (WSW) 05:01:05 435.215
VERMONT LUNAR 24 May 04:58:59 05:02:03 42° 172° (S) 05:05:05 437.305
SO-50 24 May 05:03:14 05:07:48 48° 311° (NW) 05:12:33 436.795
Cosmos 2491 24 May 05:05:36 05:11:02 18° 56° (NE) 05:16:51 435.465 / 435.565
Cosmos 2499 24 May 05:05:37 05:07:40 11° 283° (WNW) 05:09:12 435.465 / 435.565
ISS 24 May 05:07:06 05:09:49 23° 12° (NNE) 05:12:33 145.825
HORYU 2 24 May 05:12:08 05:16:23 44° 289° (WNW) 05:20:34 437.375
AO-7 24 May 05:19:16 05:27:42 90° 277° (W) 05:36:06 29.400- 29.500
STRAND 1 24 May 05:26:09 05:28:54 15° 60° (ENE) 05:31:51 437.568
BEESAT 2 24 May 05:27:19 05:28:27 11° 251° (WSW) 05:29:22 435.950
CUBESAT XI-V 24 May 05:27:30 05:31:22 28° 68° (ENE) 05:35:20 437.345
MOZHAYETS 4 24 May 05:35:50 05:39:29 23° 268° (W) 05:43:03
M-CUBED/EXP-1 PRIME 24 May 05:36:49 05:39:02 15° 60° (ENE) 05:41:20 437.505
AUBIESAT-1 24 May 05:47:53 05:50:25 16° 61° (ENE) 05:52:57 437.475
YUBILEINY 24 May 06:04:25 06:07:52 13° 75° (ENE) 06:11:56 435.215
CUTE-I 24 May 06:06:24 06:10:11 20° 90° (E) 06:14:09 437.470
JAS-2 24 May 06:14:02 06:17:48 20° 298° (WNW) 06:21:24 435.910
PHONESAT 2.4 24 May 06:24:39 06:27:59 47° 175° (S) 06:31:20 2401.200-2431.200
Cubesat XI-IV 24 May 06:25:23 06:30:01 30° 94° (E) 06:34:43 437.490
VERMONT LUNAR 24 May 06:35:58 06:38:59 40° 190° (S) 06:42:01 437.305
PRISM 24 May 06:40:06 06:44:10 76° 75° (ENE) 06:48:17 437.425
ISS 24 May 06:43:20 06:46:37 78° 30° (NNE) 06:49:54 145.825
SO-50 24 May 06:47:36 06:49:37 12° 333° (NNW) 06:51:30 436.795
Cosmos 2491 24 May 07:00:49 07:09:43 79° 80° (E) 07:18:32 435.465 / 435.565
STRAND 1 24 May 07:02:26 07:07:32 79° 257° (WSW) 07:12:40 437.568
CUBESAT XI-V 24 May 07:04:37 07:08:45 32° 265° (W) 07:12:52 437.345
M-CUBED/EXP-1 PRIME 24 May 07:09:17 07:13:36 60° 253° (WSW) 07:17:34 437.505
AO-7 24 May 07:13:16 07:19:35 24° 308° (NW) 07:25:38 29.400- 29.500
AUBIESAT-1 24 May 07:20:45 07:24:57 51° 254° (WSW) 07:28:50 437.475
CUTE-I 24 May 07:45:26 07:50:42 57° 289° (WNW) 07:55:56 437.470
BRITE-PL 24 May 07:47:55 07:52:01 21° 88° (E) 07:56:11 437.365/2234.400
YUBILEINY 24 May 07:54:34 08:03:15 71° 94° (E) 08:11:57 435.215
PHONESAT 2.4 24 May 08:02:35 08:05:51 39° 191° (SSW) 08:09:08 2401.200-2431.200
Cubesat XI-IV 24 May 08:05:16 08:10:13 39° 292° (WNW) 08:15:08 437.490
GOMX 1 24 May 08:07:21 08:11:05 19° 88° (E) 08:14:53 467.674
RS-15 24 May 08:13:09 08:21:14 26° 104° (ESE) 08:29:53 29.354- 29.394
VERMONT LUNAR 24 May 08:13:37 08:15:46 17° 205° (SSW) 08:17:53 437.305
AIST 1 24 May 08:16:53 08:21:16 86° 77° (ENE) 08:25:40
ISS 24 May 08:20:48 08:22:41 14° 227° (SW) 08:24:30 145.825
SEEDS 24 May 08:34:05 08:36:07 14° 89° (E) 08:38:20 437.485
COMPASS 1 24 May 08:51:59 08:54:42 17° 91° (E) 08:57:31 437.405
PCSat 24 May 08:53:24 08:56:33 16° 35° (NE) 08:59:49 145.827
Cosmos 2491 24 May 08:59:06 09:05:43 23° 280° (W) 09:11:56 435.465 / 435.565
ANTELSAT 24 May 09:00:21 09:01:56 12° 61° (ENE) 09:03:44 437.575/2403.000
AAUSAT CUBESAT 2 24 May 09:06:35 09:09:44 21° 93° (E) 09:12:57 437.432
HO-68 24 May 09:17:12 09:24:11 54° 100° (E) 09:31:10 435.675
Cosmos 2504 24 May 09:17:16 09:23:31 25° 84° (E) 09:29:46 435.465 / 435.565
DOVE 4 24 May 09:22:44 09:27:56 61° 100° (E) 09:32:51 437.250
CINEMA 3 24 May 09:24:38 09:28:53 31° 94° (E) 09:33:00 145.822/145.860
BRITE-PL 24 May 09:25:21 09:30:59 61° 287° (WNW) 09:36:25 437.365/2234.400
TIGRISAT 24 May 09:32:23 09:36:00 23° 66° (ENE) 09:39:42 435.000
QB50P2 24 May 09:36:23 09:37:46 12° 61° (ENE) 09:39:21 145.880/145.840
CANX-2 24 May 09:36:25 09:40:40 90° 98° (E) 09:44:52 2200.000
Oscar 11 24 May 09:36:58 09:40:17 22° 93° (E) 09:43:40 145.826/435.025
CUTE 1.7 + AOD 2 24 May 09:40:29 09:44:43 90° 80° (E) 09:48:56 437.475
PHONESAT 2.4 24 May 09:41:18 09:43:29 16° 207° (SSW) 09:45:37 2401.200-2431.200
GOMX 1 24 May 09:44:18 09:49:42 60° 287° (WNW) 09:54:50 467.674
POPSAT HIP 1 24 May 09:48:22 09:50:45 15° 63° (ENE) 09:53:17 437.405
UNISAT 6 24 May 09:50:42 09:54:56 35° 69° (ENE) 09:59:11 437.425
DUCHIFAT 1 24 May 09:52:43 09:55:18 16° 64° (ENE) 09:58:01 145.980
YUBILEINY 24 May 09:53:39 10:01:00 28° 296° (WNW) 10:08:05 435.215
DELFI C3 24 May 09:54:59 09:58:13 24° 94° (E) 10:01:32 145.870
UWE-3 24 May 09:55:18 09:58:58 25° 93° (E) 10:02:35 435.000/436.395/437.385
SEEDS 24 May 10:08:13 10:12:19 54° 287° (WNW) 10:16:23 437.485
FUNcube-1 24 May 10:13:45 10:17:36 30° 95° (E) 10:21:22 145.935
